Temperature
14 14 14 14 14 13 13 13 13 13 13 13 12 12 12 12 12 12 12 12 11 12 12 12 12 11 11 11 11 11 12 12 12 12 12 12 12 12 12 12 12 12 12
14 14 13 14 13 13 13 13 13 13 13 12 12 12 12 12 12 12 12 11 11 11 11 11 11 11 11 11 11 11 11 11 11 11 11 12 12 12 12 11 12 12 12
13 13 13 13 13 13 13 13 12 12 12 12 12 12 12 12 12 12 11 11 11 11 11 11 11 11 11 11 11 11 11 11 11 11 11 11 11 11 11 11 11 11 11
13 13 13 13 13 13 12 12 12 12 12 12 12 12 12 12 12 11 11 11 11 11 11 11 11 11 11 11 11 11 11 11 11 11 11 11 11 11 11 11 11 11 11
13 13 13 13 12 12 12 12 12 12 12 12 12 11 11 11 11 11 11 11 11 11 11 11 11 11 11 11 11 11 11 11 10 10 10 10 10 11 11 11 11 11 11
13 13 13 12 12 12 12 12 12 12 11 11 11 11 11 11 11 11 11 11 11 11 11 11 11 11 11 11 11 11 11 10 10 10 10 10 10 10 10 10 10 10 10
13 13 12 12 12 12 12 11 11 11 11 11 11 11 11 11 11 11 11 11 11 10 10 10 10 10 11 11 10 10 10 10 10 10 10 10 10 10 10 10 10 10 10
12 12 12 12 12 11 11 11 11 11 11 11 11 10 10 10 10 10 10 10 10 10 10 10 10 10 10 10 10 10 10 10 10 10 10 10 10 10 10 10 10 10 10
12 12 12 12 11 11 11 11 10 10 10 10 10 10 10 10 10 10 10 10 10 10 10 10 10 10 10 10 10 10 10 10 10 10 10 10 10 9 9 9 9 9 9
12 11 11 11 11 11 10 10 10 10 10 10 10 10 10 10 10 9 9 9 9 9 9 9 9 9 9 9 9 9 9 9 9 9 9 9 9 9 9 9 9 9 9
11 11 11 11 10 10 10 10 10 9 9 9 9 9 9 9 9 9 9 9 9 9 9 9 9 8 9 9 9 9 9 9 9 9 9 9 9 9 9 9 9 9 8
11 10 10 10 10 10 10 9 9 9 9 9 8 8 8 8 8 8 8 8 8 8 8 8 8 8 8 8 8 8 8 8 8 8 8 8 8 8 8 8 8 8 8
10 10 10 10 9 9 9 9 8 8 8 8 8 8 7 8 8 8 8 8 7 7 7 7 7 7 7 7 7 7 7 7 8 7 7 7 7 7 8 8 8 8 8
10 10 9 9 9 9 8 8 8 8 8 8 7 7 7 7 7 7 7 7 7 7 7 7 7 7 7 7 7 7 7 7 7 7 7 7 7 7 7 7 7 7 7
9 9 9 9 8 8 8 8 8 8 8 8 7 7 7 7 7 7 7 7 6 6 6 6 6 6 6 6 6 6 6 6 6 6 6 6 6 6 6 6 6 6 6
9 8 8 8 8 8 7 7 7 7 7 7 7 7 7 6 6 6 6 6 6 6 6 6 6 6 5 5 5 5 5 6 5 5 6 6 6 6 6 6 6 6 6
8 8 8 7 7 7 7 7 6 6 6 6 6 6 6 6 6 6 6 6 6 5 5 5 5 5 5 5 5 5 5 5 5 5 5 5 5 5 5 5 5 5 5
7 7 7 7 7 6 6 6 6 6 5 5 5 5 5 5 5 5 5 5 5 5 4 4 4 4 4 4 4 4 4 4 4 4 4 4 4 4 4 4 4 4 4
7 6 6 6 6 6 6 5 5 5 5 5 4 4 5 5 4 4 4 4 4 4 4 4 4 4 4 4 4 4 4 4 4 4 4 4 4 4 4 4 4 4 4
6 6 6 6 5 5 5 5 5 4 4 4 4 4 4 4 4 4 4 4 3 3 3 3 3 3 3 3 3 3 3 3 3 3 3 3 3 3 3 3 3 3 3
6 5 5 5 5 5 5 5 4 4 4 4 4 4 4 4 4 4 3 3 3 3 3 3 3 3 3 3 3 3 2 2 2 2 2 2 2 2 2 2 2 2 2
5 5 5 5 5 4 4 4 4 4 3 3 3 3 3 3 3 3 3 3 3 2 2 2 2 2 2 2 2 2 2 2 2 2 2 2 2 2 2 2 2 2 2
5 4 4 4 4 4 4 4 4 3 3 3 3 3 3 2 2 2 2 2 2 2 2 2 2 2 2 2 2 2 2 2 2 2 2 2 2 1 1 1 1 1 1
4 4 3 4 4 4 3 3 3 3 3 3 2 2 2 2 2 2 2 2 2 2 2 2 1 1 1 1 1 2 2 2 2 1 1 1 1 1 1 1 1 1 1
4 3 3 3 3 3 3 2 2 2 2 2 2 2 2 1 1 1 1 1 1 1 1 1 1 1 1 1 1 1 1 1 1 1 1 1 1 1 1 0 0 0 0
3 3 3 2 2 2 2 2 2 2 1 1 1 1 1 1 1 1 1 0 0 0 0 0 0 0 0 0 1 1 1 1 1 1 1 1 0 0 0 -0 -0 -0 -0
Wind_Speed
4 3 3 3 2 2 2 2 2 2 1 2 2 2 2 2 2 2 2 1 1 2 2 1 2 1 1 1 1 1 1 1 2 2 1 1 1 1 2 3 6 6 6
3 3 3 3 2 2 2 2 2 2 2 1 1 1 1 2 3 3 3 2 2 2 2 2 3 2 2 1 1 2 2 2 2 3 2 2 2 3 2 2 3 5 5
3 3 3 3 3 3 3 3 3 2 2 1 1 2 2 2 2 2 3 3 3 3 3 3 3 2 2 2 2 2 2 2 1 2 3 2 2 2 2 2 2 2 4
4 3 3 3 3 3 3 2 2 2 2 2 2 2 2 2 2 2 2 2 2 2 3 3 2 2 2 2 2 2 2 1 1 2 2 2 2 2 2 2 2 2 2
4 4 4 3 3 3 2 2 2 2 3 3 2 2 2 2 2 2 2 2 2 2 2 2 2 1 1 1 1 2 2 1 1 2 2 2 2 1 2 2 3 2 3
4 4 3 3 3 2 2 2 3 2 2 2 2 2 2 2 2 2 1 2 3 3 3 3 2 2 1 1 2 2 3 3 3 2 2 3 3 2 2 2 2 2 2
3 3 3 3 2 2 2 2 2 2 2 2 2 2 2 1 1 2 3 2 3 3 3 2 2 1 1 1 3 4 4 4 4 3 3 4 3 4 4 4 3 3 3
3 3 3 2 2 2 1 2 1 1 2 2 2 3 2 2 2 3 3 3 3 3 3 2 2 1 0 0 1 2 3 4 5 4 3 4 4 4 5 5 5 4 2
2 2 2 2 2 2 1 1 1 1 2 2 2 2 1 1 2 3 2 2 3 3 3 2 2 1 0 0 1 2 3 3 4 4 5 5 6 5 3 2 2 2 2
2 2 2 2 2 2 2 1 1 1 2 1 2 2 1 1 2 2 2 2 2 3 2 2 2 1 2 1 1 2 3 3 3 4 4 5 4 5 4 3 4 3 2
1 2 2 2 2 2 1 0 0 0 1 1 1 1 1 1 1 2 2 2 2 2 2 2 2 1 1 2 2 2 4 3 3 3 3 3 2 1 1 2 2 3 4
1 2 2 2 2 2 2 1 1 1 0 1 1 1 1 1 1 1 2 3 3 2 2 1 1 2 2 3 3 3 4 4 2 2 2 1 1 1 2 2 2 2 3
1 2 1 2 2 2 2 1 1 1 0 0 1 1 1 1 2 3 3 4 4 2 1 3 3 3 3 2 3 4 4 2 1 2 2 2 2 2 1 0 1 1 1
1 2 1 2 2 2 2 1 1 1 0 1 1 1 1 1 2 2 2 2 3 2 2 2 3 3 3 3 2 2 2 2 1 2 2 2 2 2 1 1 0 0 0
0 1 1 1 2 2 2 1 1 1 1 0 0 1 1 1 2 3 2 1 1 1 2 1 1 1 1 1 1 1 1 2 2 2 2 1 2 1 1 1 1 1 0
0 1 1 1 1 2 2 1 2 2 2 2 2 1 1 2 3 3 3 3 3 2 1 0 1 1 1 1 1 1 2 2 2 2 1 1 1 1 1 1 1 0 0
1 1 1 1 1 1 1 1 1 1 2 1 1 1 1 2 3 2 2 3 3 2 1 0 1 1 1 1 1 1 2 2 2 2 1 1 1 1 1 1 1 1 1
2 2 1 1 1 1 0 0 0 0 1 1 1 1 1 2 2 2 2 3 2 2 1 1 1 1 1 1 1 1 1 1 2 2 1 2 2 1 1 2 1 1 1
2 2 1 1 1 1 1 0 0 1 0 1 1 2 2 2 2 2 2 1 1 1 1 1 1 2 2 1 1 1 1 1 2 1 2 2 2 1 1 1 1 1 1
2 2 2 1 1 1 0 0 0 1 1 0 1 1 1 1 1 1 1 1 1 1 1 1 1 1 2 2 2 2 2 2 2 2 2 2 2 1 1 1 1 1 1
1 1 0 0 0 0 0 0 0 0 1 0 0 0 1 1 0 0 0 0 0 1 1 1 2 2 2 2 2 2 2 2 2 2 2 2 2 1 1 1 1 1 1
1 0 0 0 0 0 0 0 0 1 1 0 0 1 1 1 1 0 0 0 0 1 1 1 1 2 1 1 1 1 1 2 2 2 2 2 2 1 1 1 1 1 1
1 1 1 1 1 1 1 0 0 0 0 0 0 1 1 0 0 0 0 0 1 1 1 1 1 2 3 3 3 2 2 2 2 2 2 2 2 2 1 1 1 1 1
1 0 0 0 1 1 1 1 0 1 1 0 0 1 1 0 0 1 0 1 1 1 1 1 1 2 3 3 2 2 3 3 3 2 2 2 2 2 1 1 1 2 2
0 0 1 0 0 0 1 1 1 1 0 0 0 0 0 0 0 1 1 1 1 1 1 2 2 2 2 2 3 3 3 4 3 3 2 1 2 2 2 2 2 2 2
1 1 1 1 1 1 1 1 1 1 1 1 0 0 0 0 0 0 1 1 1 1 1 2 2 3 2 2 3 3 3 4 3 3 3 2 2 2 2 2 2 2 2
Wind_Direction
180 188 189 177 176 185 186 194 198 207 212 212 221 205 188 183 174 170 187 207 242 265 253 244 259 264 259 262 266 265 272 250 253 277 266 230 158 163 166 185 178 170 184
177 180 182 179 184 188 206 216 201 196 204 215 217 215 212 203 190 189 205 214 227 253 258 247 242 246 244 261 254 244 246 250 234 266 274 253 212 185 180 202 190 191 192
176 180 181 187 188 200 214 215 204 198 208 214 220 225 227 229 213 209 206 216 221 234 240 242 247 234 237 257 246 248 249 258 243 257 270 258 228 189 183 222 229 211 209
171 176 183 196 195 206 217 208 211 211 213 218 219 228 226 217 223 242 241 239 236 247 247 243 239 233 222 238 241 244 247 248 251 264 270 258 239 208 164 200 242 244 234
173 180 194 200 190 199 203 200 217 220 222 223 226 230 231 228 239 253 244 261 261 261 267 258 236 229 239 249 259 237 236 236 239 248 262 267 248 206 207 206 217 233 243
177 184 189 193 191 200 206 209 216 224 227 225 223 230 246 264 275 292 302 254 253 254 263 262 245 212 245 315 323 279 232 222 227 226 243 253 250 225 211 209 209 204 246
176 183 180 187 189 204 220 225 217 214 233 242 245 232 229 259 279 297 301 277 253 244 248 258 270 252 197 245 281 284 273 257 241 222 229 241 249 226 204 211 215 211 226
174 169 156 161 167 180 204 219 223 232 240 231 246 236 209 229 279 301 296 276 269 254 246 245 241 226 153 106 301 292 278 261 243 241 245 258 259 241 207 202 209 220 235
168 168 163 164 173 179 195 203 227 252 253 239 255 251 217 237 290 298 306 268 273 270 260 254 252 213 310 53 274 278 277 275 261 253 250 262 273 266 239 191 192 188 221
174 174 181 171 169 180 191 214 223 232 247 248 260 259 234 219 292 292 290 253 273 278 280 284 282 311 4 15 282 281 279 281 295 294 278 271 270 275 256 214 200 201 199
142 156 173 168 161 154 162 197 126 155 282 269 269 283 268 234 272 275 276 256 266 278 278 282 286 324 313 311 291 266 278 289 280 270 262 260 262 263 279 260 231 205 198
123 150 158 151 152 135 123 111 102 102 11 312 317 326 335 357 347 302 277 279 295 274 284 295 318 336 318 301 287 288 301 310 304 298 284 266 271 274 268 260 252 219 212
139 151 164 150 139 125 122 116 99 102 105 314 318 311 341 358 4 358 333 311 302 288 300 342 345 334 319 305 294 309 317 318 308 303 301 293 285 272 288 295 270 200 235
149 165 176 161 143 122 109 101 93 78 56 354 339 336 355 21 26 10 347 338 343 328 319 321 327 325 323 324 335 314 293 290 289 265 275 292 312 328 334 331 329 147 171
125 118 129 121 118 109 101 88 110 105 114 97 304 333 4 347 353 359 4 348 352 335 346 322 310 326 332 317 306 286 276 290 281 274 278 299 311 323 321 356 35 73 175
94 118 94 79 96 117 129 101 67 89 76 55 33 26 12 11 358 4 0 354 355 360 27 345 300 289 282 287 292 300 299 298 300 291 274 262 281 299 315 329 5 99 265
34 70 101 97 87 87 120 143 115 35 38 29 18 25 41 22 15 9 2 5 6 44 72 349 321 309 297 300 302 301 309 321 325 324 326 320 308 310 313 306 303 283 266
32 37 71 114 111 108 87 16 157 200 343 351 357 22 66 72 53 30 31 41 34 44 45 12 329 319 316 320 321 325 329 343 343 343 345 343 332 317 302 307 294 289 279
34 21 46 70 73 97 121 66 25 28 12 3 26 23 46 54 39 39 67 74 76 29 13 3 347 345 345 349 353 6 8 353 342 343 342 335 330 325 309 299 299 314 314
60 40 42 47 57 87 85 86 57 10 337 1 27 23 59 58 47 47 61 57 61 21 358 342 336 353 5 10 14 18 13 356 346 346 342 333 328 333 331 337 344 328 307
81 53 15 56 197 182 163 138 188 268 291 336 4 22 79 164 188 139 123 39 26 8 352 355 3 7 9 12 17 9 3 356 352 342 342 334 332 341 353 348 335 341 347
44 53 1 282 239 238 211 166 191 239 251 299 3 18 64 120 105 95 97 19 30 38 21 7 354 359 356 357 8 8 354 344 342 344 340 336 332 329 332 335 339 342 346
21 33 40 31 19 0 349 342 349 333 5 42 19 34 70 85 98 129 157 59 44 37 16 20 14 6 13 18 28 31 5 342 334 335 331 333 333 323 316 301 296 311 314
5 22 17 14 20 8 337 325 327 339 356 360 18 60 61 37 11 5 14 32 21 16 18 23 19 6 12 16 18 18 6 360 356 337 310 284 286 293 297 311 299 295 286
353 328 285 247 213 242 295 304 307 289 268 283 324 32 38 9 353 355 359 17 4 6 3 7 7 1 5 14 12 358 354 353 345 334 319 300 271 272 269 270 275 287 287
217 241 256 250 249 242 245 253 270 288 277 257 229 293 275 278 279 308 337 350 338 334 352 1 356 1 12 9 348 344 346 340 332 319 309 296 273 265 265 262 262 261 266
Height
1506 1507 1508 1510 1511 1512 1513 1514 1515 1516 1517 1517 1518 1518 1518 1518 1518 1518 1518 1518 1518 1518 1518 1518 1517 1518 1518 1517 1517 1517 1517 1517 1516 1516 1516 1516 1516 1516 1516 1516 1516 1517 1518
1503 1505 1506 1507 1508 1509 1510 1511 1512 1513 1514 1515 1515 1516 1516 1516 1516 1516 1516 1516 1516 1516 1516 1516 1515 1515 1515 1515 1515 1515 1514 1515 1515 1513 1513 1513 1513 1513 1514 1513 1513 1514 1515
1501 1502 1503 1504 1505 1506 1507 1508 1510 1510 1511 1512 1513 1513 1514 1514 1514 1514 1515 1514 1514 1514 1514 1514 1513 1513 1513 1512 1512 1512 1512 1512 1512 1511 1510 1511 1511 1511 1511 1511 1511 1511 1512
1499 1500 1500 1502 1502 1503 1504 1506 1507 1507 1508 1509 1510 1511 1511 1511 1511 1512 1512 1512 1511 1511 1511 1511 1511 1511 1510 1509 1509 1508 1509 1509 1509 1508 1508 1508 1508 1508 1508 1508 1508 1509 1509
1496 1497 1498 1499 1500 1501 1502 1503 1504 1505 1505 1506 1507 1507 1508 1508 1508 1508 1508 1508 1508 1508 1508 1508 1508 1508 1507 1507 1506 1505 1505 1505 1505 1505 1505 1505 1504 1504 1504 1505 1505 1505 1506
1493 1494 1495 1496 1497 1498 1499 1500 1501 1501 1502 1503 1504 1504 1505 1505 1505 1505 1505 1505 1505 1505 1505 1505 1505 1504 1504 1504 1503 1503 1503 1502 1502 1502 1501 1501 1500 1501 1501 1501 1502 1502 1502
1491 1491 1492 1494 1494 1495 1496 1497 1498 1498 1499 1500 1500 1501 1501 1501 1501 1501 1501 1501 1501 1501 1502 1501 1501 1501 1501 1500 1500 1499 1499 1499 1499 1499 1498 1497 1497 1497 1497 1498 1498 1498 1498
1488 1488 1489 1490 1491 1492 1493 1493 1494 1495 1496 1496 1497 1497 1497 1497 1498 1498 1498 1498 1498 1498 1498 1498 1498 1497 1497 1497 1496 1496 1495 1495 1495 1495 1494 1494 1494 1494 1494 1494 1494 1494 1495
1484 1485 1486 1487 1488 1488 1489 1490 1491 1492 1492 1493 1493 1494 1494 1493 1494 1494 1494 1494 1494 1494 1494 1494 1494 1494 1494 1493 1493 1492 1492 1491 1492 1492 1491 1490 1490 1490 1490 1490 1490 1491 1491
1482 1482 1483 1484 1485 1485 1486 1487 1488 1488 1489 1489 1490 1490 1490 1490 1490 1490 1490 1490 1489 1489 1489 1490 1490 1490 1490 1490 1489 1489 1488 1488 1487 1487 1487 1486 1486 1486 1486 1486 1486 1487 1487
1480 1480 1481 1481 1482 1482 1483 1484 1484 1485 1485 1486 1486 1486 1486 1486 1486 1486 1486 1486 1486 1485 1485 1485 1485 1486 1486 1486 1486 1486 1485 1485 1484 1484 1483 1483 1482 1482 1482 1482 1483 1483 1484
1477 1478 1478 1478 1479 1480 1480 1481 1481 1482 1482 1482 1482 1482 1483 1483 1483 1482 1482 1482 1482 1482 1481 1482 1482 1482 1482 1482 1482 1482 1482 1482 1481 1481 1480 1479 1478 1478 1478 1479 1479 1479 1480
1475 1475 1475 1476 1476 1477 1477 1478 1478 1479 1479 1479 1479 1480 1479 1479 1479 1479 1479 1479 1478 1478 1478 1478 1478 1478 1478 1478 1478 1478 1478 1478 1477 1477 1476 1476 1476 1476 1475 1475 1475 1476 1477
1472 1473 1473 1474 1474 1474 1475 1476 1476 1476 1476 1477 1477 1477 1477 1476 1476 1475 1475 1475 1475 1474 1474 1474 1474 1474 1474 1474 1474 1474 1474 1474 1474 1474 1473 1473 1473 1473 1472 1472 1472 1472 1473
1470 1471 1471 1472 1472 1472 1473 1473 1474 1474 1474 1474 1474 1474 1474 1473 1473 1473 1472 1472 1471 1471 1471 1470 1470 1470 1470 1470 1470 1470 1471 1471 1470 1470 1470 1469 1469 1469 1469 1469 1469 1469 1470
1467 1468 1469 1469 1470 1470 1471 1471 1472 1473 1473 1472 1472 1473 1472 1472 1471 1470 1470 1469 1469 1468 1468 1467 1467 1467 1467 1467 1467 1467 1467 1467 1467 1467 1466 1466 1466 1466 1466 1466 1466 1466 1466
1465 1466 1466 1467 1467 1468 1469 1469 1469 1470 1470 1470 1470 1470 1469 1469 1468 1468 1467 1466 1466 1465 1465 1464 1464 1464 1465 1465 1465 1464 1464 1464 1464 1464 1463 1463 1463 1463 1463 1463 1463 1463 1463
1463 1464 1464 1465 1465 1466 1466 1467 1467 1467 1467 1467 1467 1467 1467 1466 1466 1465 1465 1464 1463 1462 1462 1462 1462 1462 1462 1462 1462 1462 1461 1461 1461 1461 1460 1460 1460 1460 1460 1460 1460 1460 1460
1461 1462 1462 1463 1463 1464 1464 1465 1465 1465 1465 1464 1464 1464 1464 1464 1463 1463 1462 1461 1460 1460 1460 1460 1460 1460 1459 1459 1459 1459 1458 1458 1458 1458 1457 1457 1457 1457 1457 1457 1457 1457 1457
1460 1461 1461 1461 1462 1462 1462 1463 1463 1463 1463 1462 1461 1461 1461 1461 1460 1460 1459 1458 1458 1458 1458 1458 1458 1458 1457 1457 1456 1456 1456 1455 1455 1455 1454 1454 1454 1454 1454 1454 1454 1454 1454
1459 1459 1460 1460 1460 1460 1460 1460 1460 1460 1460 1460 1459 1459 1458 1458 1458 1457 1457 1457 1456 1456 1456 1456 1456 1455 1455 1454 1454 1454 1453 1453 1452 1452 1452 1451 1451 1451 1451 1451 1451 1451 1452
1457 1457 1458 1458 1458 1458 1458 1458 1458 1458 1458 1457 1457 1457 1456 1456 1455 1455 1455 1455 1454 1454 1454 1454 1453 1453 1452 1452 1452 1451 1451 1450 1450 1450 1449 1449 1449 1448 1449 1449 1449 1449 1449
1455 1455 1456 1456 1456 1456 1456 1456 1456 1455 1455 1455 1455 1454 1454 1453 1453 1453 1453 1452 1452 1452 1452 1451 1451 1451 1450 1450 1450 1449 1448 1448 1447 1447 1446 1446 1446 1446 1446 1446 1446 1446 1446
1454 1454 1454 1453 1453 1453 1454 1454 1453 1453 1453 1452 1452 1452 1451 1451 1451 1451 1450 1450 1450 1449 1449 1449 1449 1448 1448 1448 1447 1447 1446 1445 1445 1444 1444 1443 1443 1443 1443 1443 1443 1443 1443
1451 1451 1451 1451 1451 1451 1451 1451 1450 1450 1450 1450 1450 1449 1449 1449 1448 1448 1448 1448 1447 1447 1446 1446 1446 1446 1445 1444 1444 1444 1443 1443 1442 1442 1441 1441 1440 1440 1440 1440 1440 1440 1440
1448 1448 1448 1448 1448 1448 1448 1447 1447 1447 1447 1447 1447 1446 1446 1446 1446 1445 1445 1445 1445 1444 1444 1443 1443 1443 1442 1441 1441 1440 1440 1439 1439 1439 1438 1438 1437 1437 1437 1437 1437 1437 1437